Wetbulb
49.65 44.48 41.01 44.77 45.96 45.36 44.36 43.09 41.96 44.64 47.13 45.18 43.90 44.00 45.92 48.26 47.80 48.02 49.48 50.70 51.77 52.51 55.91 58.17 61.32 61.90 68.52 74.92 74.17 73.44 72.71 74.00 74.28 74.19 72.62 73.47 72.68 74.85 74.11 75.66 75.21 75.55 75.33 74.06
46.09 42.57 47.03 47.82 47.01 45.52 44.50 42.09 41.75 44.48 46.70 45.70 44.41 44.11 45.99 47.37 47.83 48.11 49.32 50.54 52.43 53.31 54.33 57.21 60.40 63.12 67.89 75.02 74.31 73.75 73.75 73.48 73.75 74.55 74.08 74.40 72.71 74.02 73.84 74.85 75.23 75.32 75.44 74.84
42.64 44.98 47.96 46.44 45.18 43.90 43.94 41.88 42.08 41.50 44.88 46.30 44.09 42.57 44.88 47.07 49.11 49.84 49.69 51.54 52.86 53.69 54.61 57.45 60.06 61.29 63.05 74.35 74.25 73.21 72.96 74.03 73.97 74.40 74.42 75.00 73.28 73.88 72.54 73.43 73.53 74.22 74.19 74.01
44.71 47.82 45.99 44.84 43.84 44.71 39.97 45.46 44.42 43.00 41.19 36.64 44.63 33.89 42.17 45.62 46.66 48.74 49.86 49.98 50.91 53.05 56.07 57.93 59.95 61.83 63.43 73.98 74.69 74.16 74.35 74.30 74.46 74.58 74.31 73.47 70.93 69.92 72.16 71.77 73.33 73.87 74.32 73.43
42.54 44.17 43.68 42.49 43.41 45.51 42.43 46.01 44.34 43.64 41.06 39.73 40.41 35.62 40.66 45.13 44.37 46.85 49.51 49.86 51.17 52.63 54.84 56.41 59.02 60.96 69.60 74.43 74.15 74.38 74.52 74.28 74.85 74.69 73.85 72.97 71.41 73.21 72.35 73.02 72.66 72.02 70.17 69.93
45.41 49.27 47.11 45.43 46.55 46.45 46.72 43.73 43.46 42.93 40.28 32.88 38.23 36.60 37.82 41.76 45.05 46.65 49.97 50.75 51.02 51.83 53.96 56.05 58.56 60.80 72.07 74.30 74.14 74.56 73.78 72.96 73.58 73.54 73.63 73.33 71.61 71.06 71.32 70.59 68.29 68.03 67.99 68.29
44.46 44.71 47.51 48.39 44.37 46.81 43.86 40.59 33.23 31.26 31.26 30.16 39.70 36.94 40.07 45.36 47.86 48.77 48.91 49.42 51.57 52.21 52.85 54.77 56.46 59.65 69.41 72.07 72.92 72.93 72.44 70.43 71.06 72.97 73.69 72.11 71.42 71.31 70.84 68.72 66.93 66.27 64.93 65.06
37.16 35.84 43.57 46.95 43.53 40.42 40.01 38.97 32.52 25.32 27.46 30.19 39.20 33.19 39.11 48.13 50.25 51.05 50.71 50.79 52.80 52.10 52.28 53.88 56.57 59.16 71.30 72.51 72.21 72.22 70.47 70.92 71.34 72.51 71.91 71.33 71.44 70.34 69.49 66.97 67.68 67.75 64.55 65.01
36.32 35.95 44.30 43.94 44.82 42.71 38.36 35.98 40.36 32.77 34.43 31.79 34.80 39.08 44.22 46.76 48.01 49.27 49.46 50.63 51.40 52.89 52.70 53.78 56.34 58.78 70.44 71.44 71.72 71.59 70.59 71.33 71.67 72.10 71.62 71.16 71.47 69.51 67.32 68.84 67.56 66.16 65.78 65.49
38.88 31.58 40.53 42.42 44.63 44.69 41.53 43.37 34.72 34.17 26.62 25.74 33.02 35.95 37.41 43.03 44.76 46.35 48.58 49.85 51.22 53.95 53.23 53.83 55.83 59.40 70.54 71.48 71.82 71.82 71.77 71.26 71.69 71.65 71.13 71.23 68.89 68.38 68.73 67.05 65.88 65.44 65.72 64.46
40.38 33.50 35.60 39.96 37.87 38.18 38.70 37.06 37.89 37.42 34.83 28.81 27.60 33.08 43.45 44.38 45.59 44.21 48.11 50.03 51.28 52.35 52.86 53.34 56.08 67.30 70.91 70.98 71.01 70.74 71.13 71.45 70.81 70.62 70.99 69.06 67.64 67.69 66.46 66.37 65.72 64.79 64.12 63.29
39.88 34.59 32.07 35.14 42.72 44.84 42.50 39.36 38.64 32.67 30.39 35.41 33.09 32.73 45.94 46.68 47.02 47.55 48.46 50.61 52.10 52.64 53.24 53.94 63.90 66.17 65.42 69.40 68.46 69.54 69.88 69.70 69.15 69.94 67.43 66.48 65.65 65.37 65.64 64.30 63.72 63.91 62.33 62.09
38.04 34.22 30.45 34.54 40.73 43.30 39.35 41.11 40.63 39.39 37.86 34.35 31.11 33.43 47.01 46.86 46.51 48.00 48.11 50.29 52.66 53.13 54.27 61.06 65.01 63.77 61.03 61.28 60.54 67.30 67.47 67.28 67.28 66.67 65.47 64.42 64.46 64.00 63.52 62.83 62.94 62.20 61.55 60.99
41.29 35.05 32.56 29.66 34.21 38.81 35.77 38.43 40.02 38.82 32.62 34.32 34.99 37.30 42.23 44.90 45.42 47.04 48.63 50.61 52.46 53.79 62.21 63.67 60.09 59.00 57.12 60.22 62.10 65.60 65.41 66.13 65.94 64.33 63.97 63.18 62.50 62.60 62.44 61.99 61.50 61.12 60.50 59.43
39.38 33.24 35.74 36.55 37.98 39.05 38.82 38.74 39.52 37.41 37.37 35.40 37.65 38.00 41.78 44.40 45.64 48.16 49.54 50.89 51.89 57.27 57.44 59.67 58.00 58.00 56.89 56.08 61.63 63.50 63.83 64.04 63.59 62.37 61.77 61.32 61.84 61.82 61.32 60.43 60.05 59.69 59.21 58.73
40.52 34.65 35.91 33.98 39.02 40.15 39.01 36.70 35.95 36.37 35.73 35.46 37.92 38.27 44.65 44.71 46.97 47.71 49.36 50.53 51.99 57.47 57.27 60.25 59.34 58.96 55.75 55.27 62.04 62.59 61.96 61.77 62.12 61.35 60.38 60.79 60.06 59.55 58.77 58.12 58.08 58.14 57.94 57.64
37.40 36.09 34.07 31.35 39.55 39.85 32.86 31.29 32.63 33.47 34.59 33.32 31.72 37.82 40.32 40.99 44.33 47.12 49.98 51.77 53.96 57.42 57.42 58.19 58.77 58.48 58.44 60.34 61.67 61.49 60.98 61.07 60.58 60.04 59.90 58.96 58.42 57.48 57.07 57.22 57.16 56.91 56.79 56.58
36.62 37.01 36.79 33.38 37.47 29.99 32.80 36.06 35.18 32.05 33.82 37.02 36.72 36.02 36.98 39.65 44.51 49.19 51.91 53.73 55.51 57.09 57.34 57.26 57.78 58.62 59.30 59.95 60.39 60.12 59.76 59.32 58.70 58.21 57.81 57.87 57.05 56.52 56.63 56.58 56.08 56.16 56.08 55.19
41.53 38.12 35.15 32.76 33.42 35.68 31.65 33.35 31.29 30.40 29.71 34.81 33.09 33.99 39.12 47.29 48.73 49.65 57.21 56.49 56.26 56.38 56.62 57.27 58.01 57.76 58.56 58.59 59.24 58.61 58.19 57.73 57.06 56.67 56.20 56.58 56.41 55.57 55.53 55.06 54.90 55.25 54.92 54.32
42.63 42.38 36.62 35.11 30.87 29.11 29.20 34.03 38.47 36.49 27.07 35.66 33.75 34.78 43.30 48.07 45.59 47.91 54.96 55.60 55.52 56.24 56.06 55.57 56.50 56.80 56.56 57.27 58.28 57.63 56.77 56.26 55.30 55.46 55.35 55.90 55.52 55.17 54.63 54.74 54.37 54.68 53.66 51.97
35.94 34.99 32.68 32.36 31.65 31.54 32.91 35.54 37.52 28.88 29.24 32.41 35.52 37.83 46.70 47.08 49.51 53.51 55.72 55.62 56.36 56.32 56.06 56.50 56.66 55.01 55.60 56.68 56.72 55.51 55.46 54.68 55.92 55.88 55.58 55.10 55.29 55.11 54.92 55.08 55.25 54.04 52.64 51.57
34.52 31.45 31.41 32.07 31.03 26.98 36.21 34.89 27.75 30.70 32.65 36.92 38.22 42.81 47.85 50.52 51.96 52.91 54.03 55.10 56.18 56.70 57.05 57.18 56.06 55.66 56.52 56.48 56.21 54.71 54.33 54.94 55.33 55.06 54.01 54.24 54.41 53.89 54.30 53.84 53.67 53.37 52.54 51.04
33.57 35.59 32.17 31.91 32.55 35.97 36.81 32.95 36.66 35.93 36.90 37.63 40.15 43.33 48.75 50.30 50.58 52.04 52.64 53.79 54.59 55.46 56.11 56.71 55.78 55.22 55.99 56.40 55.71 53.60 53.85 54.26 53.98 53.71 52.92 52.88 53.09 53.26 53.96 53.41 53.26 52.83 52.98 50.85
38.64 39.32 34.66 34.31 34.39 34.43 36.19 37.62 37.15 36.75 39.43 40.28 40.94 42.39 47.26 48.39 49.93 50.03 50.88 51.62 52.26 53.01 53.31 54.49 54.34 54.16 54.28 54.61 54.89 54.51 54.49 54.50 53.54 52.31 51.97 52.58 52.19 51.64 52.27 48.60 45.64 44.81 47.64 50.48
37.57 38.28 34.48 34.05 36.28 34.98 37.14 36.61 35.84 36.29 40.96 39.89 41.51 41.44 42.82 46.99 47.27 48.53 49.05 49.85 50.86 51.56 52.39 53.07 53.20 53.60 54.02 54.97 54.27 54.76 54.55 53.91 52.31 52.22 51.42 49.34 46.27 44.05 40.96 39.41 42.22 40.26 37.99 43.37
38.15 34.75 32.25 31.04 33.13 31.87 32.21 34.77 36.56 38.99 38.91 39.32 39.45 39.50 40.51 45.46 45.68 46.90 47.06 48.24 48.92 49.64 51.41 51.96 52.72 53.09 53.27 53.62 53.58 54.01 54.11 53.09 51.04 49.98 49.29 47.55 46.06 43.56 41.02 38.67 37.17 36.24 36.70 36.59
MSLP
1005.78 1005.67 1005.63 1005.04 1004.71 1004.06 1003.45 1002.93 1001.73 1000.90 1000.37 1000.14 999.89 999.65 999.48 999.02 998.49 998.23 998.03 997.75 997.57 997.53 997.48 997.33 997.10 997.18 997.24 998.90 1000.39 1000.73 999.16 1001.25 1002.49 1003.57 1004.63 1005.87 1006.21 1006.41 1006.70 1007.28 1008.11 1008.91 1009.35 1009.95
1005.11 1004.04 1003.65 1003.34 1003.43 1003.45 1003.13 1002.56 1001.75 1001.04 1000.82 1000.46 999.89 999.15 998.65 998.63 998.60 998.00 997.51 996.67 996.24 996.24 996.58 996.35 996.33 996.68 996.83 998.53 999.91 1000.05 1001.10 1002.56 1002.29 1003.16 1004.12 1005.43 1005.76 1006.01 1006.49 1007.50 1008.29 1008.73 1009.19 1009.86
1004.27 1003.45 1003.06 1002.65 1002.39 1002.32 1002.28 1002.11 1001.86 1001.41 1001.25 1000.53 1000.12 998.78 998.64 997.89 998.40 997.61 996.96 996.45 995.76 995.06 995.25 995.33 995.49 996.00 996.57 997.90 999.28 1000.11 1000.38 1001.36 1002.52 1003.43 1004.11 1004.48 1005.13 1005.79 1006.57 1007.51 1008.37 1008.97 1009.34 1009.94
1004.05 1003.52 1003.09 1002.42 1001.74 1001.81 1001.06 1001.53 1001.82 1002.01 1001.64 1000.30 1000.91 998.68 998.32 998.12 997.17 996.77 996.58 995.93 995.57 995.07 994.51 994.79 995.01 995.39 996.09 997.49 999.05 999.69 1000.30 1001.29 1002.24 1002.88 1003.36 1003.83 1004.61 1005.49 1006.55 1007.58 1008.54 1009.33 1009.86 1010.53
1003.80 1003.51 1002.92 1002.19 1001.86 1002.13 1001.32 1001.97 1002.49 1002.68 1002.20 1001.73 1000.60 1000.24 997.13 997.54 996.49 995.76 995.84 995.41 995.21 994.86 994.46 994.31 994.64 994.83 995.44 997.23 998.33 998.88 999.94 1000.97 1001.77 1002.28 1002.96 1003.83 1004.78 1005.77 1006.67 1008.00 1009.23 1010.33 1011.07 1011.47
1003.85 1003.23 1002.45 1001.65 1001.70 1001.79 1001.83 1002.21 1002.62 1003.09 1003.12 1001.65 1000.30 1000.22 996.83 996.48 995.10 994.46 994.10 993.95 994.37 994.53 994.47 994.42 994.07 994.09 994.98 996.55 998.03 999.07 1000.10 1001.22 1002.33 1003.01 1003.65 1003.94 1004.89 1006.09 1007.39 1008.69 1010.10 1011.27 1011.91 1012.43
1003.93 1002.86 1001.75 1001.27 1001.50 1001.56 1002.84 1003.19 1003.89 1003.53 1003.25 1000.40 1000.17 999.03 996.03 995.29 993.71 993.45 992.69 993.06 992.87 993.35 993.81 993.89 993.75 993.71 994.21 996.67 998.01 999.15 1000.21 1001.58 1002.48 1003.40 1003.68 1004.65 1005.23 1006.16 1007.51 1009.03 1010.50 1011.51 1012.45 1012.93
1005.11 1003.41 1002.51 1003.01 1003.09 1003.92 1004.79 1005.07 1004.59 1004.03 1002.89 1001.41 1000.02 998.30 996.16 994.37 993.14 992.33 991.51 991.58 990.94 991.69 992.62 993.05 993.23 993.31 994.24 996.15 997.46 998.53 1000.46 1002.08 1002.90 1004.17 1004.59 1005.35 1006.06 1006.53 1007.84 1009.41 1010.62 1011.37 1012.55 1013.01
1007.69 1005.38 1004.46 1003.93 1003.73 1004.37 1004.53 1005.05 1005.59 1004.95 1003.99 1002.69 999.43 997.05 996.03 994.06 992.69 991.71 991.13 990.92 990.37 990.31 991.29 992.14 992.73 992.76 994.04 995.45 996.97 998.17 1000.16 1001.32 1003.01 1004.03 1004.70 1005.69 1006.04 1006.84 1008.21 1009.61 1010.96 1011.66 1012.52 1013.12
1009.85 1007.37 1005.84 1004.14 1003.40 1002.75 1003.15 1004.16 1005.45 1005.51 1003.80 1001.28 998.01 996.02 993.77 993.17 992.39 993.13 991.90 990.95 990.47 990.02 990.37 991.29 991.98 992.22 993.79 995.31 996.89 998.03 999.39 1000.75 1002.65 1003.80 1005.00 1005.00 1005.38 1006.79 1008.33 1009.57 1011.09 1012.10 1012.62 1013.41
1010.96 1009.91 1006.24 1005.45 1003.32 1001.97 1002.83 1003.92 1004.59 1004.61 1003.52 1001.36 998.82 996.11 994.70 993.93 993.60 993.09 993.41 991.78 990.18 990.07 990.05 990.35 991.29 991.95 993.48 994.82 996.25 997.83 998.75 1000.33 1001.71 1003.19 1003.64 1004.44 1005.71 1007.66 1009.02 1009.90 1011.03 1011.87 1012.93 1013.75
1011.20 1010.16 1007.26 1004.87 1001.88 1001.64 1001.71 1002.99 1003.61 1003.63 1002.17 1000.71 999.47 996.85 995.60 994.51 994.30 994.20 993.59 992.03 990.35 990.01 989.91 990.17 991.41 993.02 994.35 995.27 996.56 997.81 998.73 999.73 1001.85 1002.68 1004.08 1005.41 1006.92 1008.51 1009.53 1010.65 1011.51 1011.98 1013.29 1014.10
1011.18 1010.43 1007.89 1003.79 1002.08 1002.19 1002.30 1002.32 1002.88 1003.16 1002.96 1000.89 999.81 996.52 995.33 994.64 994.36 993.85 993.22 991.94 990.95 990.10 990.17 990.22 992.55 994.11 996.12 997.21 998.35 998.20 994.47 999.34 1001.63 1003.26 1004.81 1006.09 1007.42 1008.71 1009.90 1011.00 1011.85 1012.21 1013.75 1014.49
1010.95 1010.08 1008.69 1006.14 1003.58 1002.77 1002.59 1002.79 1002.65 1002.41 1002.04 1000.24 998.45 997.16 995.67 994.64 994.11 993.65 992.64 991.91 991.11 990.94 991.30 991.90 994.23 995.93 997.87 998.85 998.04 997.27 997.68 1000.73 1002.51 1003.41 1005.83 1006.90 1007.65 1009.07 1010.26 1011.42 1011.91 1012.93 1014.39 1014.85
1010.60 1009.29 1007.96 1005.71 1004.02 1002.84 1001.88 1001.73 1001.75 1001.77 1001.61 1000.71 998.69 997.13 996.21 995.58 994.79 993.65 992.73 991.94 992.67 992.80 993.40 993.38 994.99 996.73 998.33 1001.48 1002.17 999.02 1001.13 1003.10 1002.66 1004.44 1006.57 1007.34 1008.31 1009.38 1010.75 1011.74 1012.65 1013.81 1014.77 1015.59
1009.66 1008.62 1007.10 1004.61 1002.57 1001.53 1001.31 1002.40 1002.45 1002.74 1002.43 1001.45 1000.28 998.32 997.76 997.62 996.43 994.95 992.99 993.44 993.70 994.10 994.35 994.83 995.92 996.79 998.05 1000.39 1002.10 1003.73 1003.59 1003.52 1003.98 1005.60 1006.71 1008.19 1008.61 1009.90 1011.12 1012.36 1013.59 1014.83 1015.26 1015.75
1009.07 1008.49 1006.88 1003.64 1001.66 1000.79 1002.01 1003.96 1004.42 1004.22 1003.62 1003.05 1001.60 999.99 999.63 998.38 996.89 995.15 993.56 993.87 993.80 994.17 995.17 996.04 996.97 998.73 1000.15 1001.78 1002.90 1003.35 1003.59 1004.65 1005.45 1006.29 1007.63 1008.15 1009.27 1010.60 1011.75 1013.17 1014.31 1015.38 1015.89 1016.22
1008.42 1008.00 1006.59 1004.17 1002.29 1001.83 1004.04 1004.65 1005.23 1004.94 1003.89 1003.25 1002.70 1001.43 999.90 998.04 996.35 994.96 994.03 993.81 994.77 996.03 996.34 996.79 998.32 1000.28 1001.51 1002.22 1003.26 1003.94 1004.34 1005.27 1006.33 1006.74 1007.85 1009.18 1010.05 1011.09 1012.67 1014.07 1015.02 1015.74 1016.40 1017.09
1007.82 1007.40 1006.02 1004.62 1003.27 1003.16 1004.83 1005.40 1005.60 1005.47 1003.66 1003.79 1002.73 1000.57 998.40 995.45 994.99 993.95 992.27 993.78 995.93 995.03 997.20 998.42 999.12 1001.24 1002.19 1002.78 1002.99 1004.59 1005.43 1006.58 1006.68 1007.79 1008.79 1009.82 1011.01 1011.96 1013.40 1014.57 1015.54 1016.30 1017.07 1017.98
1006.63 1005.83 1005.91 1004.89 1004.54 1004.41 1006.76 1005.77 1004.44 1004.66 1004.37 1003.89 1001.95 999.70 997.01 995.26 994.79 994.68 994.35 995.63 996.64 997.50 998.45 999.44 1000.70 1001.72 1003.20 1004.30 1005.69 1005.75 1006.77 1007.31 1008.03 1008.77 1009.52 1010.53 1011.62 1012.70 1013.98 1015.17 1015.98 1017.24 1017.99 1018.77
1006.86 1006.48 1006.17 1005.81 1005.69 1006.24 1007.65 1006.95 1004.43 1005.41 1006.41 1004.60 1002.45 1000.14 996.46 995.30 995.28 993.91 995.27 996.44 997.73 998.32 999.51 1000.62 1001.55 1002.19 1004.71 1006.38 1006.20 1006.82 1007.65 1008.19 1008.58 1009.05 1009.89 1011.14 1012.72 1013.86 1014.91 1015.75 1016.80 1017.73 1018.57 1019.38
1008.58 1008.59 1007.83 1007.66 1007.10 1007.88 1009.06 1008.48 1008.87 1009.09 1006.67 1005.81 1003.29 1000.65 998.20 997.39 996.33 996.35 996.94 997.58 998.16 999.36 1000.29 1001.22 1002.35 1004.02 1005.90 1006.03 1005.86 1006.58 1007.29 1008.15 1008.58 1009.44 1011.21 1013.04 1014.03 1015.03 1015.88 1016.62 1017.45 1018.60 1018.80 1019.27
1009.73 1010.67 1010.75 1010.74 1009.88 1010.37 1010.82 1011.03 1010.26 1009.23 1007.64 1005.66 1003.86 1001.65 999.95 998.57 998.20 998.23 998.65 998.69 999.14 999.15 1000.81 1002.17 1003.43 1005.03 1006.05 1005.95 1006.47 1006.66 1008.69 1009.22 1010.26 1011.45 1012.95 1014.05 1015.13 1016.08 1016.61 1017.51 1018.21 1018.29 1018.55 1018.90
1010.19 1011.19 1011.27 1011.36 1010.89 1010.95 1010.99 1010.97 1010.38 1009.48 1008.02 1006.46 1004.69 1003.30 1001.60 1000.65 1000.28 1000.30 1000.32 1000.79 1000.93 1001.39 1003.15 1003.95 1004.79 1005.40 1005.87 1007.41 1007.81 1008.17 1009.03 1010.01 1011.26 1012.73 1014.01 1014.76 1015.77 1016.91 1017.77 1018.69 1019.09 1019.04 1018.91 1018.94
1011.45 1011.49 1012.15 1011.55 1011.73 1011.37 1011.06 1011.36 1010.83 1009.30 1008.42 1007.43 1006.07 1005.05 1004.05 1003.00 1002.71 1001.89 1002.22 1002.75 1003.02 1003.33 1004.34 1004.95 1005.51 1005.90 1006.61 1007.41 1008.01 1009.15 1010.31 1011.38 1012.62 1013.51 1014.93 1016.32 1017.34 1018.37 1019.37 1019.93 1020.11 1020.63 1021.23 1020.42
1012.19 1012.84 1013.06 1012.86 1013.32 1013.64 1012.61 1012.09 1011.51 1010.23 1009.51 1008.80 1007.82 1006.73 1005.95 1005.39 1005.17 1004.63 1004.61 1004.75 1004.76 1004.73 1005.29 1005.94 1006.93 1007.35 1007.53 1008.20 1009.26 1010.43 1011.54 1012.67 1013.65 1014.54 1015.57 1016.67 1017.66 1018.59 1019.37 1020.34 1021.50 1022.61 1022.62 1022.77
Wind_Speed
17 16 16 21 18 21 22 23 25 23 24 20 18 18 20 23 18 20 20 24 26 28 24 22 17 18 9 16 19 24 22 20 13 11 9 8 8 6 6 5 14 10 6 7
16 20 23 23 22 23 23 25 26 26 23 24 21 28 21 17 21 20 23 22 19 24 27 24 19 13 9 17 18 14 19 18 11 10 10 11 9 7 6 9 10 7 6 8
21 23 23 22 21 20 22 24 24 25 24 27 24 27 25 22 22 24 21 23 22 21 22 17 17 20 15 18 17 16 16 17 13 14 10 7 10 6 6 8 7 6 7 6
22 21 23 24 25 21 25 21 21 24 23 19 18 19 21 23 20 21 26 22 23 22 19 19 14 14 17 20 18 19 19 19 16 17 10 7 8 10 10 8 6 5 8 10
23 25 26 27 27 24 25 24 15 17 21 17 24 15 21 17 25 25 20 22 23 24 18 15 18 17 20 23 21 19 20 20 19 17 13 10 11 7 9 10 11 10 10 10
26 26 25 24 27 27 25 25 20 15 12 17 17 17 23 21 25 21 26 23 27 25 22 20 20 19 21 23 21 18 20 20 20 16 14 13 18 14 11 11 9 7 6 6
21 22 25 11 21 25 15 14 4 10 11 17 13 18 20 23 23 30 20 22 28 27 26 25 24 17 22 23 20 19 19 20 18 16 15 15 17 17 15 13 9 10 8 8
11 11 10 9 10 5 7 8 7 7 5 8 19 7 15 21 25 23 19 25 23 29 27 26 22 19 24 24 23 21 23 21 14 16 14 13 15 11 12 13 9 9 9 8
8 8 27 29 18 15 4 8 2 7 11 15 18 23 15 22 18 19 19 8 22 23 27 26 24 23 27 24 24 24 23 24 26 17 16 16 15 17 14 13 11 10 11 9
4 16 16 21 18 18 14 8 5 5 7 17 13 18 12 12 8 13 19 15 19 12 26 24 25 22 26 24 22 24 24 26 24 21 18 16 18 17 15 15 14 13 11 13
10 7 13 17 9 17 4 6 8 8 9 7 14 11 7 8 9 2 19 21 16 15 16 25 21 16 26 25 25 26 25 25 22 20 17 19 18 16 16 14 14 14 13 12
4 5 9 21 27 22 18 15 15 7 10 12 14 13 12 7 8 5 16 19 14 16 20 21 15 17 16 22 23 26 25 24 22 19 20 20 18 16 16 15 14 15 13 11
5 4 9 12 1 6 7 11 16 10 9 18 14 11 7 4 9 11 14 16 19 18 20 13 15 17 15 11 4 9 25 23 21 22 22 21 18 18 18 16 15 15 12 11
8 5 9 15 22 20 20 14 16 18 10 18 18 21 20 18 12 16 13 17 20 18 16 18 18 20 22 13 17 14 17 24 21 23 21 20 21 18 17 16 15 14 12 11
3 8 16 22 25 26 27 25 23 21 21 21 17 21 15 14 11 16 14 17 15 14 15 19 21 23 21 12 11 10 16 20 22 24 21 20 19 19 17 16 15 13 12 11
4 6 16 24 26 17 19 5 10 10 16 15 17 22 11 13 13 22 21 12 15 16 18 19 21 20 29 10 18 16 18 19 22 23 22 21 20 19 18 16 15 13 13 12
2 4 5 10 19 24 2 7 11 11 15 9 11 16 16 18 21 22 15 13 9 21 22 22 23 23 24 24 17 18 20 20 21 22 21 21 20 19 18 16 15 14 13 14
2 10 4 11 18 9 6 9 10 10 19 8 11 19 22 24 24 21 15 9 18 17 23 23 20 17 18 18 18 19 20 20 20 21 21 20 19 19 18 16 15 14 12 13
9 9 5 6 12 4 7 15 13 7 18 3 14 20 21 13 9 12 10 19 18 20 19 21 24 19 17 17 19 20 21 19 21 20 20 20 19 19 18 16 15 12 12 12
16 9 7 10 10 7 7 25 24 7 6 16 28 26 21 5 10 6 19 21 22 23 23 23 26 25 21 14 17 21 21 20 21 21 21 19 18 18 17 16 14 11 12 11
11 9 9 10 7 3 17 23 26 6 11 27 22 23 10 4 7 21 23 22 20 23 26 25 24 26 20 17 20 22 21 21 21 22 21 20 18 17 16 14 11 12 12 13
6 7 6 8 6 6 19 11 8 11 16 16 21 17 9 10 20 22 22 21 23 24 25 25 23 21 18 20 22 23 22 21 22 23 22 19 17 13 12 14 12 11 11 13
4 4 6 4 5 7 10 9 9 13 17 13 14 16 8 14 19 22 20 21 21 26 19 21 21 22 18 19 20 26 23 22 22 21 20 18 16 14 11 10 9 7 9 11
6 3 5 8 3 15 9 14 15 15 10 12 15 16 11 14 17 20 19 19 20 22 21 20 21 22 23 22 22 23 22 22 21 20 17 15 14 12 9 10 9 9 8 9
2 10 10 9 4 16 2 16 17 18 11 12 14 16 15 16 17 19 18 18 18 19 19 20 19 19 22 22 22 21 21 20 19 17 16 15 12 13 13 13 10 11 12 13
2 4 4 5 11 3 11 14 16 9 11 12 13 16 19 17 16 19 17 17 17 19 19 19 19 19 20 21 22 20 18 17 17 16 13 11 11 11 12 12 13 20 20 24
Wind_Direction
261 233 238 256 265 277 274 272 278 281 288 277 259 255 267 276 242 258 242 235 235 226 240 237 234 225 197 153 160 158 169 150 153 153 162 152 164 193 153 124 130 152 167 146
260 250 255 260 247 260 277 279 276 278 281 278 271 282 257 255 284 248 272 245 254 214 225 226 218 210 185 157 161 160 141 164 149 155 170 169 169 174 147 126 136 149 143 132
278 282 292 283 267 254 252 259 271 278 282 279 278 263 263 252 256 258 242 266 265 227 216 225 212 193 204 159 164 164 159 160 162 166 183 165 153 152 118 128 124 136 125 131
282 294 284 272 271 272 277 267 273 296 269 265 266 273 263 272 263 243 248 241 255 267 208 215 219 203 181 163 168 166 172 164 172 172 179 167 158 156 134 137 118 103 100 76
280 284 280 275 274 281 278 290 274 283 273 277 255 264 271 246 249 252 254 225 242 252 251 228 224 213 171 163 172 175 171 166 173 176 177 162 151 111 130 112 109 87 81 93
285 275 268 265 260 256 267 263 264 256 270 259 254 248 262 255 256 248 241 218 221 231 239 241 240 209 171 167 171 167 167 174 173 173 175 162 130 125 126 117 104 104 103 98
296 297 286 301 296 251 340 286 266 228 213 250 269 248 246 260 250 249 226 240 211 210 220 227 237 223 180 165 169 166 164 170 174 186 155 138 132 133 131 121 125 127 111 112
278 303 3 3 22 350 303 267 227 284 249 294 288 258 284 265 245 261 250 227 213 199 205 219 223 226 160 166 167 160 163 156 163 177 134 130 134 128 117 125 147 139 131 124
314 273 328 306 300 276 245 235 307 286 275 270 260 265 238 271 270 250 252 242 257 197 196 208 214 221 165 163 165 160 163 160 167 146 138 139 137 121 126 137 113 118 118 116
284 287 284 291 291 269 245 254 213 194 257 263 254 274 256 230 208 343 321 214 252 258 193 200 213 214 160 161 164 164 170 161 157 145 151 142 123 122 131 121 125 125 132 113
303 226 280 301 244 262 220 217 211 252 242 271 288 288 23 350 33 323 299 310 221 243 263 195 208 178 160 163 163 171 165 152 143 145 134 122 119 120 123 119 123 118 114 118
259 277 277 285 281 270 272 231 231 226 246 239 255 271 279 301 302 302 288 289 284 228 241 199 172 138 148 165 168 172 160 139 142 127 117 117 116 124 120 118 118 116 119 118
195 234 298 296 183 46 274 239 229 242 258 256 261 261 304 224 288 269 267 284 279 230 239 173 140 144 117 106 188 176 140 129 125 123 121 123 128 119 118 119 116 109 114 116
160 235 231 267 284 304 291 263 261 242 251 263 247 269 264 267 273 267 245 263 269 281 142 124 117 111 80 47 25 141 113 122 128 118 121 123 118 121 114 113 111 109 106 104
235 262 274 273 270 270 272 279 273 257 245 254 273 254 255 283 326 293 258 257 287 126 134 124 131 131 115 91 187 105 116 124 118 116 120 115 117 114 114 109 104 104 105 102
222 272 295 289 283 271 264 28 359 349 318 306 301 286 330 345 309 287 261 275 273 160 140 124 128 137 131 208 117 146 132 120 117 120 117 121 116 111 107 105 103 104 101 95
241 291 295 278 309 307 90 50 5 308 293 288 271 296 321 290 261 254 251 246 222 147 131 122 107 125 138 149 141 138 122 123 118 119 119 113 111 110 109 107 106 103 96 90
239 286 260 285 302 305 74 9 343 296 288 307 272 287 281 267 266 254 258 239 136 153 128 128 113 111 119 119 126 123 120 114 119 113 112 114 113 109 107 105 103 102 101 96
208 272 274 278 311 274 32 337 327 324 297 260 305 293 292 245 218 273 186 135 144 127 120 125 115 119 116 116 118 123 118 122 114 116 114 112 110 108 109 106 103 101 101 95
341 306 259 298 300 303 351 333 325 312 258 335 332 327 314 344 114 121 116 122 120 119 118 118 118 111 106 118 133 123 124 122 119 115 110 109 108 105 106 107 106 111 107 103
333 346 324 323 295 91 4 346 320 20 320 317 315 312 44 111 102 103 105 100 108 110 118 119 120 111 126 139 131 120 120 116 115 108 104 100 102 105 108 111 105 99 99 104
326 332 345 327 305 337 10 346 16 294 300 317 313 326 47 90 90 90 97 106 108 112 117 113 109 117 138 135 123 116 106 102 102 96 97 103 101 101 102 102 101 116 123 121
350 23 313 295 319 354 353 312 312 312 310 323 323 339 38 85 89 94 94 103 95 95 100 107 116 123 125 109 106 105 104 104 103 101 103 103 106 110 109 115 127 134 142 131
330 51 283 323 67 346 316 336 340 331 338 334 360 2 24 72 83 95 88 90 94 96 103 107 112 112 105 105 104 101 106 105 104 107 109 109 107 102 104 67 53 47 25 107
341 314 326 275 347 322 336 343 335 329 6 9 23 21 28 69 74 86 92 92 95 100 104 104 104 104 104 107 103 103 106 110 113 111 111 97 90 87 81 60 55 66 42 56
5 332 320 312 334 284 297 324 324 7 25 22 35 36 38 59 74 81 84 89 94 95 98 96 99 102 100 98 103 107 108 111 116 121 108 110 107 94 90 87 78 52 64 64